NKS410 KOAK-KOKC

Flight info

Callsign NKS410
Flight time N/A
Altitude 37000
Route OAK6 OAK TIPRE Q126 INSLO DTA JNC PUB MMB ROLLS CAMET3
Aircraft A319/M-SDE3FGHIRWY/LB1

Departure

Time N/A
Airport San Francisco Bay Oakland International Airport (KOAK)

Arrival

Time 2026-04-24 03:14
Airport OKC Will Rogers World Airport (KOKC)
Time Latitude Longitude Altitude Speed Heading
2026-04-24 02:33 37.54269 -102.59953 36734 ft 512 kts 124°
2026-04-24 02:33 37.50922 -102.52024 36713 ft 512 kts 125°
2026-04-24 02:34 37.47595 -102.44169 36722 ft 512 kts 125°
2026-04-24 02:34 37.44227 -102.36276 36703 ft 511 kts 125°
2026-04-24 02:35 37.40865 -102.28392 36718 ft 511 kts 125°
2026-04-24 02:35 37.37493 -102.20515 36723 ft 511 kts 125°
2026-04-24 02:36 37.34126 -102.12657 36717 ft 511 kts 125°
2026-04-24 02:36 37.30757 -102.04793 36708 ft 510 kts 125°
2026-04-24 02:37 37.27404 -101.96986 36708 ft 511 kts 125°
2026-04-24 02:37 37.23994 -101.89105 36762 ft 511 kts 125°
2026-04-24 02:38 37.20625 -101.81330 36773 ft 511 kts 125°
2026-04-24 02:38 37.17227 -101.73495 36775 ft 511 kts 125°
2026-04-24 02:39 37.13831 -101.65690 36710 ft 510 kts 124°
2026-04-24 02:39 37.10430 -101.57887 36764 ft 510 kts 124°
2026-04-24 02:40 37.07036 -101.50101 36779 ft 509 kts 124°
2026-04-24 02:40 37.03638 -101.42333 36776 ft 508 kts 124°
2026-04-24 02:41 37.00238 -101.34580 36774 ft 508 kts 124°
2026-04-24 02:41 36.96825 -101.26842 36728 ft 507 kts 124°
2026-04-24 02:42 36.93444 -101.19192 36711 ft 506 kts 124°
2026-04-24 02:42 36.90053 -101.11504 36739 ft 505 kts 124°
2026-04-24 02:43 36.86649 -101.03818 36752 ft 504 kts 124°
2026-04-24 02:43 36.83246 -100.96163 36746 ft 504 kts 124°
2026-04-24 02:44 36.79846 -100.88514 36726 ft 504 kts 124°
2026-04-24 02:44 36.76446 -100.80869 36707 ft 504 kts 124°
2026-04-24 02:45 36.73035 -100.73236 36660 ft 504 kts 125°
2026-04-24 02:45 36.69634 -100.65665 36655 ft 504 kts 125°
2026-04-24 02:46 36.66207 -100.58033 36650 ft 504 kts 125°
2026-04-24 02:46 36.62776 -100.50419 36629 ft 504 kts 125°
2026-04-24 02:47 36.59340 -100.42814 36643 ft 504 kts 125°
2026-04-24 02:47 36.55904 -100.35217 36639 ft 504 kts 125°
2026-04-24 02:48 36.52465 -100.27624 36615 ft 504 kts 126°
2026-04-24 02:48 36.49010 -100.20026 36604 ft 506 kts 126°
2026-04-24 02:49 36.45544 -100.12416 36618 ft 507 kts 126°
2026-04-24 02:49 36.42068 -100.04799 36632 ft 507 kts 126°
2026-04-24 02:50 36.38601 -99.97237 36651 ft 508 kts 126°
2026-04-24 02:50 36.34661 -99.90089 36654 ft 495 kts 141°
2026-04-24 02:51 36.32192 -99.87189 36641 ft 484 kts 151°
2026-04-24 02:51 36.29478 -99.84809 36646 ft 473 kts 160°
2026-04-24 02:51 36.23729 -99.80956 36645 ft 471 kts 162°
2026-04-24 02:52 36.17925 -99.77109 36647 ft 474 kts 162°
2026-04-24 02:52 36.13090 -99.73902 36634 ft 475 kts 162°
2026-04-24 02:53 36.07250 -99.70035 36636 ft 477 kts 162°
2026-04-24 02:53 36.01383 -99.66164 36186 ft 480 kts 162°
2026-04-24 02:54 35.98413 -99.64217 35430 ft 485 kts 162°
2026-04-24 02:54 35.95422 -99.62256 34688 ft 488 kts 163°
2026-04-24 02:54 35.92415 -99.60284 33978 ft 490 kts 163°
2026-04-24 02:54 35.89400 -99.58306 33220 ft 491 kts 162°
2026-04-24 02:55 35.86376 -99.56320 32408 ft 492 kts 162°
2026-04-24 02:55 35.83363 -99.54342 31634 ft 492 kts 161°
2026-04-24 02:55 35.80342 -99.52359 30891 ft 491 kts 161°
2026-04-24 02:55 35.77349 -99.50312 30166 ft 497 kts 154°
2026-04-24 02:56 35.74705 -99.47473 29418 ft 514 kts 136°
2026-04-24 02:56 35.72783 -99.43719 28602 ft 526 kts 116°
2026-04-24 02:56 35.71838 -99.39363 27805 ft 530 kts 97°
2026-04-24 02:56 35.71556 -99.34904 27014 ft 528 kts 95°
2026-04-24 02:57 35.71308 -99.30410 26253 ft 525 kts 95°
2026-04-24 02:57 35.71059 -99.25947 25537 ft 520 kts 95°
2026-04-24 02:57 35.70808 -99.21533 24913 ft 514 kts 95°
2026-04-24 02:57 35.70553 -99.17174 24307 ft 508 kts 96°
2026-04-24 02:58 35.70296 -99.12855 23706 ft 502 kts 96°
2026-04-24 02:58 35.70041 -99.08595 23086 ft 497 kts 96°
2026-04-24 02:58 35.69786 -99.04390 22393 ft 491 kts 96°
2026-04-24 02:58 35.69531 -99.00218 21720 ft 485 kts 96°
2026-04-24 02:59 35.69281 -98.96105 21064 ft 479 kts 96°
2026-04-24 02:59 35.69035 -98.92041 20413 ft 474 kts 96°
2026-04-24 02:59 35.68790 -98.88029 19783 ft 468 kts 96°
2026-04-24 02:59 35.68543 -98.84051 19164 ft 463 kts 96°
2026-04-24 03:00 35.68296 -98.80127 18555 ft 459 kts 97°
2026-04-24 03:00 35.68046 -98.76222 17957 ft 455 kts 97°
2026-04-24 03:00 35.67798 -98.72366 17278 ft 452 kts 97°
2026-04-24 03:00 35.67553 -98.68512 16600 ft 449 kts 96°
2026-04-24 03:01 35.67315 -98.64753 15959 ft 445 kts 96°
2026-04-24 03:01 35.67078 -98.60972 15317 ft 442 kts 96°
2026-04-24 03:01 35.66844 -98.57237 14915 ft 432 kts 96°
2026-04-24 03:01 35.66617 -98.53636 14786 ft 414 kts 96°
2026-04-24 03:02 35.66396 -98.50180 14630 ft 398 kts 97°
2026-04-24 03:02 35.66175 -98.46826 14190 ft 387 kts 97°
2026-04-24 03:02 35.65956 -98.43573 13728 ft 377 kts 97°
2026-04-24 03:02 35.65742 -98.40395 13218 ft 371 kts 97°
2026-04-24 03:03 35.65327 -98.37296 12601 ft 364 kts 107°
2026-04-24 03:03 35.64726 -98.34296 12009 ft 361 kts 107°
2026-04-24 03:03 35.64134 -98.31313 11423 ft 358 kts 107°
2026-04-24 03:03 35.63554 -98.28359 11004 ft 351 kts 107°
2026-04-24 03:04 35.62989 -98.25474 10780 ft 344 kts 107°
2026-04-24 03:04 35.62443 -98.22689 10652 ft 334 kts 107°
2026-04-24 03:04 35.61901 -98.19943 10450 ft 328 kts 107°
2026-04-24 03:04 35.61367 -98.17229 10171 ft 326 kts 107°
2026-04-24 03:05 35.60859 -98.14525 9881 ft 324 kts 106°
2026-04-24 03:05 35.60364 -98.11827 9580 ft 323 kts 106°
2026-04-24 03:05 35.59874 -98.09142 9271 ft 321 kts 106°
2026-04-24 03:05 35.59387 -98.06478 8958 ft 318 kts 106°
2026-04-24 03:06 35.58900 -98.03830 8635 ft 317 kts 107°
2026-04-24 03:06 35.58412 -98.01199 8319 ft 315 kts 107°
2026-04-24 03:06 35.57924 -97.98583 8048 ft 311 kts 107°
2026-04-24 03:06 35.57437 -97.96004 7647 ft 310 kts 108°
2026-04-24 03:07 35.56945 -97.93432 7215 ft 309 kts 108°
2026-04-24 03:07 35.56450 -97.90873 6786 ft 308 kts 108°
2026-04-24 03:07 35.55956 -97.88319 6370 ft 307 kts 109°
2026-04-24 03:07 35.55466 -97.85774 5943 ft 306 kts 109°
2026-04-24 03:08 35.54977 -97.83239 5503 ft 304 kts 110°
2026-04-24 03:08 35.54042 -97.78336 5115 ft 280 kts 111°
2026-04-24 03:08 35.53629 -97.76080 4999 ft 264 kts 108°
2026-04-24 03:09 35.53539 -97.73852 4838 ft 265 kts 98°
2026-04-24 03:09 35.53541 -97.71610 4651 ft 261 kts 98°
2026-04-24 03:09 35.53542 -97.69403 4455 ft 254 kts 98°
2026-04-24 03:09 35.53547 -97.67258 4269 ft 246 kts 99°
2026-04-24 03:10 35.53551 -97.65190 4089 ft 238 kts 100°
2026-04-24 03:10 35.53501 -97.63201 3882 ft 225 kts 112°
2026-04-24 03:10 35.53003 -97.61490 3599 ft 203 kts 135°
2026-04-24 03:10 35.52166 -97.60223 3422 ft 179 kts 152°
2026-04-24 03:11 35.51202 -97.59418 3226 ft 156 kts 163°
2026-04-24 03:11 35.50227 -97.59004 3103 ft 143 kts 176°
2026-04-24 03:11 35.49281 -97.58886 2988 ft 132 kts 184°
2026-04-24 03:11 35.48380 -97.58892 2825 ft 129 kts 183°
2026-04-24 03:12 35.47468 -97.58893 2664 ft 132 kts 183°
2026-04-24 03:12 35.46597 -97.58890 2515 ft 119 kts 183°
2026-04-24 03:12 35.45788 -97.58890 2364 ft 113 kts 182°
2026-04-24 03:12 35.45005 -97.58888 2214 ft 113 kts 180°
2026-04-24 03:13 35.44208 -97.58890 2066 ft 118 kts 178°
2026-04-24 03:13 35.43375 -97.58888 1895 ft 122 kts 178°
2026-04-24 03:13 35.42521 -97.58894 1740 ft 126 kts 178°
2026-04-24 03:13 35.41636 -97.58884 1598 ft 131 kts 179°
2026-04-24 03:14 35.40716 -97.58896 1376 ft 134 kts 178°
2026-04-24 03:14 35.39835 -97.58897 1292 ft 111 kts 179°
2026-04-24 03:14 35.39278 -97.58892 1293 ft 51 kts 180°
2026-04-24 03:14 35.39003 -97.58893 1294 ft 35 kts 180°
2026-04-24 03:15 35.38830 -97.58899 1295 ft 14 kts 198°
2026-04-24 03:15 35.38802 -97.59016 1291 ft 16 kts 291°
2026-04-24 03:15 35.38903 -97.59063 1293 ft 17 kts
2026-04-24 03:15 35.39023 -97.59064 1293 ft 18 kts 360°
2026-04-24 03:16 35.39158 -97.59063 1291 ft 20 kts
2026-04-24 03:16 35.39290 -97.59064 1293 ft 18 kts 359°
2026-04-24 03:16 35.39408 -97.59062 1295 ft 13 kts
2026-04-24 03:16 35.39475 -97.59124 1295 ft 14 kts 279°
2026-04-24 03:17 35.39442 -97.59220 1296 ft 11 kts 209°
2026-04-24 03:17 35.39394 -97.59258 1296 ft 8 kts 244°
2026-04-24 03:17 35.39384 -97.59330 1297 ft 9 kts 265°
2026-04-24 03:17 35.39383 -97.59412 1298 ft 10 kts 279°
2026-04-24 03:18 35.39435 -97.59450 1297 ft 9 kts 345°
2026-04-24 03:18 35.39472 -97.59467 1297 ft 2 kts 333°
2026-04-24 03:18 35.39478 -97.59471 1297 ft 1 kts 334°